QPF
0.00 0.00 0.00 0.00 0.00 0.00 0.00 0.00 0.00 0.00 0.00 0.00 0.00 0.00 0.00 0.00 0.00 0.00 0.00 0.00 0.00 0.00 0.00 0.00 0.04 0.10 0.23 0.12 0.12 0.11 0.01 0.03 0.06 0.10 0.05 0.04 0.04 0.02 0.01 0.00 0.01 0.01 0.04 0.15
0.00 0.00 0.00 0.00 0.00 0.00 0.00 0.00 0.00 0.00 0.00 0.00 0.00 0.00 0.00 0.00 0.00 0.00 0.00 0.00 0.00 0.00 0.00 0.00 0.01 0.00 0.02 0.24 0.31 0.17 0.08 0.02 0.04 0.05 0.07 0.06 0.02 0.03 0.02 0.04 0.05 0.03 0.07 0.08
0.00 0.00 0.00 0.00 0.00 0.00 0.00 0.00 0.00 0.00 0.00 0.00 0.00 0.00 0.00 0.00 0.00 0.00 0.00 0.00 0.00 0.00 0.00 0.00 0.01 0.02 0.01 0.19 0.20 0.27 0.17 0.06 0.03 0.04 0.05 0.04 0.02 0.03 0.02 0.04 0.07 0.04 0.02 0.08
0.00 0.00 0.00 0.00 0.00 0.00 0.00 0.00 0.00 0.00 0.00 0.00 0.00 0.00 0.00 0.00 0.00 0.00 0.00 0.00 0.00 0.00 0.00 0.00 0.01 0.05 0.03 0.13 0.32 0.28 0.14 0.08 0.07 0.02 0.00 0.00 0.00 0.00 0.00 0.00 0.00 0.00 0.00 0.00
0.00 0.00 0.00 0.00 0.00 0.00 0.00 0.00 0.00 0.00 0.00 0.00 0.00 0.00 0.00 0.00 0.00 0.00 0.00 0.00 0.00 0.00 0.00 0.00 0.01 0.09 0.08 0.10 0.26 0.08 0.07 0.08 0.06 0.02 0.00 0.00 0.00 0.00 0.00 0.00 0.00 0.00 0.00 0.00
0.00 0.00 0.00 0.00 0.00 0.00 0.00 0.00 0.00 0.00 0.00 0.00 0.00 0.00 0.00 0.00 0.00 0.00 0.00 0.00 0.00 0.00 0.00 0.00 0.02 0.05 0.08 0.08 0.05 0.04 0.02 0.02 0.01 0.00 0.00 0.00 0.00 0.00 0.00 0.00 0.00 0.00 0.00 0.00
0.00 0.00 0.00 0.00 0.00 0.00 0.00 0.00 0.00 0.00 0.00 0.00 0.00 0.00 0.00 0.00 0.00 0.00 0.00 0.00 0.00 0.01 0.00 0.00 0.03 0.01 0.03 0.04 0.01 0.01 0.01 0.00 0.00 0.00 0.00 0.00 0.00 0.00 0.00 0.00 0.00 0.00 0.00 0.00
0.00 0.00 0.00 0.00 0.00 0.00 0.00 0.00 0.00 0.00 0.00 0.00 0.00 0.00 0.00 0.00 0.00 0.00 0.00 0.00 0.02 0.03 0.01 0.04 0.04 0.01 0.01 0.06 0.06 0.01 0.00 0.00 0.00 0.00 0.00 0.00 0.00 0.00 0.00 0.00 0.00 0.00 0.00 0.00
0.00 0.00 0.00 0.00 0.00 0.00 0.00 0.00 0.00 0.00 0.00 0.00 0.00 0.00 0.00 0.00 0.00 0.00 0.00 0.15 0.37 0.30 0.15 0.11 0.07 0.08 0.08 0.08 0.04 0.00 0.00 0.00 0.00 0.00 0.00 0.00 0.00 0.00 0.00 0.00 0.00 0.00 0.00 0.00
0.00 0.00 0.00 0.00 0.00 0.00 0.00 0.00 0.00 0.00 0.00 0.00 0.00 0.00 0.00 0.00 0.00 0.00 0.00 0.08 0.16 0.03 0.09 0.12 0.13 0.07 0.01 0.00 0.00 0.00 0.00 0.00 0.00 0.00 0.00 0.00 0.00 0.00 0.00 0.00 0.00 0.00 0.00 0.00
0.00 0.00 0.00 0.00 0.00 0.00 0.00 0.00 0.00 0.00 0.00 0.00 0.00 0.00 0.00 0.00 0.00 0.00 0.00 0.01 0.01 0.00 0.00 0.04 0.10 0.05 0.02 0.00 0.00 0.00 0.00 0.00 0.00 0.00 0.00 0.00 0.00 0.00 0.00 0.00 0.00 0.00 0.00 0.00
0.00 0.00 0.00 0.00 0.00 0.00 0.00 0.00 0.00 0.00 0.00 0.00 0.00 0.00 0.00 0.00 0.00 0.00 0.00 0.00 0.00 0.00 0.02 0.00 0.06 0.06 0.01 0.00 0.00 0.00 0.00 0.00 0.00 0.00 0.00 0.00 0.00 0.00 0.00 0.00 0.00 0.00 0.00 0.00
0.00 0.00 0.00 0.00 0.00 0.00 0.00 0.00 0.00 0.00 0.00 0.00 0.00 0.00 0.00 0.00 0.00 0.00 0.00 0.00 0.00 0.00 0.03 0.07 0.06 0.02 0.02 0.00 0.00 0.00 0.00 0.00 0.00 0.00 0.00 0.00 0.00 0.00 0.00 0.00 0.00 0.00 0.00 0.00
0.00 0.00 0.00 0.00 0.00 0.00 0.00 0.00 0.00 0.00 0.00 0.00 0.00 0.00 0.00 0.00 0.00 0.00 0.00 0.00 0.00 0.00 0.01 0.03 0.01 0.03 0.04 0.00 0.00 0.00 0.00 0.00 0.00 0.00 0.00 0.00 0.00 0.00 0.00 0.00 0.00 0.00 0.00 0.00
0.00 0.00 0.00 0.00 0.00 0.00 0.00 0.00 0.00 0.00 0.00 0.00 0.00 0.00 0.00 0.00 0.00 0.00 0.00 0.00 0.00 0.00 0.00 0.02 0.00 0.00 0.01 0.00 0.00 0.00 0.00 0.00 0.00 0.01 0.00 0.00 0.00 0.00 0.00 0.00 0.00 0.00 0.00 0.00
0.00 0.00 0.00 0.00 0.00 0.00 0.00 0.00 0.00 0.00 0.00 0.00 0.00 0.00 0.00 0.00 0.00 0.00 0.00 0.00 0.00 0.00 0.00 0.02 0.04 0.01 0.00 0.00 0.00 0.00 0.00 0.01 0.00 0.03 0.02 0.00 0.00 0.00 0.00 0.00 0.00 0.00 0.00 0.00
0.00 0.00 0.00 0.00 0.00 0.00 0.00 0.00 0.00 0.00 0.00 0.00 0.00 0.00 0.00 0.00 0.00 0.00 0.00 0.00 0.00 0.00 0.00 0.00 0.02 0.01 0.01 0.00 0.00 0.00 0.00 0.03 0.00 0.00 0.00 0.00 0.00 0.00 0.00 0.00 0.00 0.00 0.00 0.00
0.00 0.00 0.00 0.00 0.00 0.00 0.00 0.00 0.00 0.00 0.00 0.00 0.00 0.00 0.00 0.00 0.00 0.00 0.00 0.00 0.00 0.00 0.00 0.00 0.00 0.01 0.01 0.01 0.00 0.01 0.02 0.04 0.06 0.06 0.05 0.00 0.00 0.00 0.00 0.00 0.00 0.00 0.00 0.00
0.00 0.00 0.00 0.00 0.00 0.00 0.00 0.00 0.00 0.00 0.00 0.00 0.00 0.00 0.00 0.00 0.00 0.00 0.00 0.01 0.02 0.01 0.05 0.05 0.04 0.04 0.04 0.03 0.01 0.01 0.02 0.02 0.06 0.07 0.06 0.00 0.00 0.00 0.00 0.00 0.00 0.00 0.00 0.00
0.00 0.00 0.00 0.00 0.00 0.00 0.00 0.00 0.00 0.00 0.00 0.00 0.00 0.00 0.00 0.00 0.00 0.00 0.02 0.07 0.08 0.06 0.07 0.08 0.07 0.05 0.06 0.03 0.02 0.00 0.00 0.00 0.00 0.03 0.01 0.00 0.00 0.00 0.00 0.00 0.00 0.00 0.00 0.00
0.00 0.00 0.00 0.00 0.00 0.00 0.00 0.00 0.00 0.00 0.00 0.00 0.00 0.00 0.00 0.01 0.01 0.00 0.02 0.05 0.02 0.02 0.03 0.03 0.03 0.01 0.00 0.00 0.00 0.00 0.00 0.00 0.00 0.00 0.00 0.00 0.00 0.00 0.00 0.00 0.00 0.00 0.00 0.00
0.00 0.00 0.00 0.00 0.00 0.00 0.00 0.00 0.00 0.00 0.00 0.00 0.02 0.01 0.01 0.00 0.01 0.01 0.01 0.05 0.05 0.04 0.03 0.02 0.01 0.00 0.00 0.00 0.00 0.00 0.00 0.00 0.00 0.00 0.00 0.00 0.02 0.03 0.02 0.01 0.00 0.00 0.00 0.00
0.00 0.00 0.00 0.00 0.00 0.00 0.00 0.00 0.00 0.00 0.00 0.01 0.02 0.05 0.03 0.01 0.05 0.09 0.12 0.09 0.07 0.04 0.02 0.00 0.00 0.00 0.00 0.00 0.00 0.00 0.00 0.00 0.00 0.00 0.00 0.00 0.01 0.01 0.01 0.00 0.00 0.00 0.00 0.00
0.00 0.00 0.01 0.01 0.00 0.00 0.00 0.00 0.00 0.00 0.00 0.00 0.01 0.05 0.07 0.10 0.14 0.18 0.18 0.14 0.07 0.01 0.00 0.00 0.00 0.00 0.00 0.00 0.00 0.00 0.00 0.00 0.00 0.00 0.00 0.01 0.01 0.00 0.00 0.00 0.00 0.00 0.00 0.00
0.00 0.00 0.01 0.01 0.00 0.00 0.00 0.00 0.00 0.00 0.00 0.00 0.00 0.00 0.01 0.02 0.04 0.04 0.03 0.02 0.01 0.00 0.00 0.00 0.00 0.00 0.00 0.00 0.00 0.00 0.00 0.00 0.00 0.00 0.00 0.00 0.00 0.00 0.00 0.00 0.00 0.00 0.00 0.00
0.00 0.00 0.01 0.01 0.00 0.00 0.00 0.00 0.00 0.00 0.00 0.00 0.00 0.00 0.00 0.00 0.00 0.00 0.00 0.00 0.00 0.00 0.00 0.00 0.00 0.00 0.00 0.00 0.00 0.00 0.00 0.00 0.00 0.00 0.00 0.00 0.00 0.00 0.00 0.00 0.00 0.00 0.00 0.00
MSLP
1007.55 1008.32 1008.56 1008.60 1008.74 1008.74 1008.44 1008.25 1007.86 1006.61 1006.22 1006.26 1007.04 1007.83 1008.02 1008.64 1009.30 1009.77 1010.21 1010.09 1010.30 1011.26 1011.66 1010.56 1010.27 1009.51 1009.48 1011.11 1012.57 1013.04 1012.20 1012.19 1012.75 1013.29 1013.75 1014.00 1013.89 1013.31 1013.18 1012.99 1012.88 1012.98 1013.14 1013.23
1008.00 1007.93 1007.93 1008.09 1008.29 1008.48 1008.49 1008.40 1007.53 1006.50 1005.84 1006.35 1007.14 1008.36 1008.37 1008.94 1009.10 1009.21 1009.70 1010.30 1010.87 1011.19 1011.86 1011.46 1010.67 1010.54 1009.80 1011.64 1012.63 1012.77 1012.35 1012.11 1012.48 1012.94 1013.32 1013.63 1013.33 1013.07 1012.97 1012.93 1012.84 1012.77 1012.76 1012.88
1007.78 1007.11 1006.94 1007.59 1007.70 1008.02 1007.87 1008.04 1007.39 1007.11 1006.48 1006.62 1007.23 1009.04 1009.38 1009.23 1009.54 1010.05 1010.03 1010.45 1010.90 1010.77 1011.53 1012.27 1011.80 1011.57 1011.40 1012.12 1012.66 1012.07 1012.34 1012.09 1012.52 1012.82 1013.31 1013.53 1013.43 1013.10 1013.05 1012.86 1012.88 1012.68 1012.46 1012.51
1007.29 1006.52 1006.49 1006.90 1006.99 1007.29 1007.31 1006.20 1006.71 1007.08 1007.11 1007.37 1007.55 1009.23 1009.40 1009.35 1009.96 1010.35 1009.85 1010.59 1010.70 1010.62 1011.08 1011.69 1011.87 1012.36 1012.57 1012.71 1011.99 1012.57 1012.54 1012.35 1012.48 1012.75 1013.42 1013.58 1013.63 1013.69 1013.13 1013.08 1012.89 1012.79 1012.36 1012.28
1006.70 1006.18 1006.14 1006.21 1006.04 1006.33 1006.28 1005.78 1006.52 1006.78 1007.50 1008.05 1008.43 1009.38 1009.66 1009.60 1010.29 1010.25 1009.59 1010.12 1010.08 1010.31 1010.51 1011.15 1011.65 1012.66 1012.85 1012.41 1013.02 1013.25 1012.99 1012.91 1012.93 1012.94 1013.27 1013.57 1013.69 1013.62 1013.24 1013.25 1013.13 1012.73 1012.26 1011.98
1006.26 1005.69 1005.59 1005.13 1004.98 1005.55 1005.61 1006.11 1007.15 1007.87 1008.68 1009.19 1009.00 1009.36 1009.43 1009.79 1009.23 1009.00 1008.35 1008.51 1009.52 1009.88 1010.37 1011.06 1011.49 1011.68 1011.84 1011.71 1012.04 1012.65 1012.73 1012.81 1012.89 1013.41 1013.75 1013.74 1013.87 1013.77 1013.54 1013.41 1013.13 1012.66 1012.24 1011.88
1006.30 1005.43 1004.79 1004.64 1004.91 1004.76 1005.65 1007.11 1008.15 1009.42 1010.04 1010.26 1009.37 1009.42 1008.95 1008.88 1008.62 1008.53 1008.18 1008.10 1009.34 1010.25 1010.76 1011.00 1011.82 1011.61 1011.21 1011.28 1011.61 1012.34 1012.55 1012.98 1013.40 1013.72 1013.90 1013.87 1013.98 1013.74 1013.91 1013.30 1012.86 1012.67 1012.41 1012.02
1006.62 1005.44 1004.25 1003.88 1004.24 1004.69 1005.46 1006.67 1008.29 1009.76 1011.06 1010.70 1009.73 1009.37 1008.45 1008.48 1008.52 1008.29 1008.36 1009.53 1010.12 1011.01 1011.17 1011.35 1011.13 1011.39 1011.69 1011.90 1012.37 1012.46 1012.68 1013.04 1013.26 1013.50 1013.74 1014.00 1014.05 1014.04 1014.07 1013.28 1012.87 1012.77 1012.23 1011.90
1006.44 1005.54 1004.08 1003.52 1003.64 1004.12 1005.31 1006.34 1007.24 1009.37 1011.08 1011.14 1010.28 1009.41 1008.73 1008.84 1009.30 1009.42 1009.73 1010.39 1009.95 1012.79 1011.04 1009.35 1010.45 1011.28 1011.92 1012.14 1012.30 1012.62 1012.96 1013.00 1013.32 1013.51 1013.76 1014.09 1014.11 1014.02 1013.92 1013.33 1013.00 1012.74 1012.30 1011.91
1005.87 1005.73 1004.29 1003.47 1003.29 1003.56 1004.18 1005.39 1007.31 1009.29 1010.92 1011.40 1010.73 1010.05 1009.68 1009.81 1010.11 1010.45 1010.33 1010.11 1010.31 1011.57 1011.29 1011.12 1010.99 1010.99 1011.67 1011.70 1012.29 1012.88 1013.12 1013.15 1013.38 1013.86 1014.09 1014.10 1013.97 1014.00 1013.83 1013.59 1013.30 1013.04 1012.60 1012.07
1005.58 1006.05 1004.84 1004.07 1003.77 1003.70 1004.40 1005.41 1007.15 1008.86 1010.00 1010.71 1010.84 1010.23 1008.30 1008.85 1009.52 1009.72 1009.79 1008.79 1008.38 1008.35 1010.97 1010.45 1010.86 1010.77 1011.55 1012.19 1012.31 1012.43 1012.64 1013.32 1013.49 1013.79 1014.18 1014.20 1014.08 1014.01 1013.97 1013.89 1013.68 1013.41 1013.01 1012.58
1005.12 1006.10 1005.81 1004.82 1004.00 1003.60 1003.87 1004.80 1006.11 1008.45 1009.96 1010.40 1010.17 1009.01 1008.33 1008.22 1008.61 1009.01 1009.00 1008.67 1008.94 1009.74 1010.46 1010.20 1010.87 1010.30 1011.78 1012.22 1012.35 1012.61 1012.91 1013.01 1013.40 1013.58 1013.91 1014.30 1014.20 1014.11 1014.10 1014.12 1014.04 1013.76 1013.52 1013.16
1005.07 1005.74 1006.10 1005.29 1004.61 1003.84 1003.81 1004.35 1005.62 1006.90 1008.01 1009.30 1009.87 1008.72 1008.45 1008.55 1009.16 1009.30 1009.52 1009.59 1010.03 1010.53 1011.00 1011.31 1011.71 1011.37 1012.06 1012.26 1012.19 1012.45 1012.82 1012.90 1013.29 1013.44 1013.75 1014.26 1014.26 1014.30 1014.27 1014.44 1014.41 1014.22 1014.10 1013.78
1004.51 1005.64 1005.67 1005.35 1004.50 1003.93 1003.79 1004.21 1004.84 1005.99 1007.48 1008.18 1008.24 1008.02 1008.64 1008.75 1009.25 1009.39 1009.50 1009.68 1010.14 1010.88 1011.41 1011.23 1011.42 1011.88 1012.38 1012.10 1012.09 1012.28 1012.70 1012.70 1013.16 1013.48 1013.61 1013.95 1014.16 1014.31 1014.37 1014.50 1014.65 1014.69 1014.70 1014.57
1005.10 1005.83 1005.50 1004.67 1004.16 1003.85 1003.50 1003.50 1004.13 1004.79 1005.48 1006.34 1006.24 1007.17 1006.84 1007.39 1008.23 1008.72 1009.00 1009.49 1010.46 1010.76 1010.53 1010.66 1010.92 1011.44 1011.76 1012.00 1012.35 1012.33 1012.47 1012.60 1012.94 1013.23 1013.42 1013.71 1013.93 1014.19 1014.39 1014.57 1014.92 1015.18 1015.36 1015.30
1005.70 1006.06 1005.91 1005.25 1004.43 1004.08 1003.57 1003.19 1002.92 1003.40 1004.17 1004.92 1005.58 1006.36 1005.85 1006.85 1008.16 1008.96 1009.00 1009.26 1010.11 1010.35 1010.73 1010.99 1010.92 1011.07 1011.66 1012.18 1012.34 1012.39 1012.17 1012.34 1013.00 1013.17 1013.33 1013.55 1013.78 1014.16 1014.62 1014.89 1015.26 1015.64 1015.95 1016.00
1006.43 1006.78 1006.88 1006.25 1005.33 1004.71 1004.23 1003.07 1002.67 1002.93 1003.49 1004.21 1005.09 1005.46 1006.09 1007.33 1007.63 1008.51 1008.84 1009.31 1010.06 1010.15 1010.35 1011.03 1010.86 1011.52 1012.39 1012.53 1012.85 1012.55 1012.28 1012.45 1012.93 1013.02 1013.26 1013.87 1013.90 1014.32 1014.83 1015.29 1015.72 1016.15 1016.44 1016.56
1006.62 1007.29 1007.45 1007.22 1006.28 1005.75 1004.37 1003.35 1002.93 1003.02 1003.36 1003.88 1004.70 1005.56 1006.10 1006.73 1007.97 1008.64 1008.88 1009.27 1010.13 1010.56 1010.58 1011.40 1012.02 1012.89 1013.22 1013.36 1013.05 1012.78 1012.99 1012.98 1012.97 1013.03 1013.30 1013.94 1014.36 1014.88 1015.26 1015.89 1016.41 1016.73 1017.04 1017.33
1006.44 1007.34 1008.04 1008.11 1007.55 1006.47 1004.95 1004.22 1004.30 1004.44 1004.36 1004.27 1005.00 1005.90 1006.95 1007.26 1008.21 1009.68 1009.66 1010.00 1010.50 1011.05 1011.57 1012.19 1012.70 1013.52 1013.66 1013.60 1013.80 1013.69 1013.38 1013.50 1013.25 1013.42 1013.48 1013.79 1014.22 1015.05 1015.79 1016.64 1017.22 1017.47 1017.75 1018.15
1006.93 1007.19 1008.19 1008.90 1008.33 1007.57 1006.40 1005.51 1005.03 1004.74 1005.60 1006.00 1005.84 1005.91 1007.21 1007.66 1009.15 1009.95 1010.37 1010.42 1011.09 1011.76 1012.29 1012.66 1013.39 1013.94 1014.02 1014.18 1014.25 1014.05 1014.08 1014.22 1014.07 1014.26 1013.91 1013.91 1014.51 1015.19 1016.11 1016.88 1017.68 1018.15 1018.38 1018.63
1008.05 1008.59 1008.97 1009.15 1008.94 1007.97 1007.47 1006.47 1005.92 1006.59 1007.55 1006.81 1006.46 1007.27 1008.04 1008.48 1008.98 1010.00 1010.80 1011.57 1012.17 1012.48 1013.00 1013.48 1014.06 1014.42 1014.56 1014.91 1015.00 1015.04 1014.89 1014.81 1014.96 1014.93 1014.78 1014.95 1015.42 1016.12 1016.71 1017.33 1018.09 1018.55 1018.86 1019.11
1008.93 1009.37 1009.69 1009.67 1009.42 1008.94 1007.76 1006.96 1007.28 1008.21 1008.00 1007.93 1007.92 1008.44 1009.34 1010.15 1011.28 1012.07 1011.68 1012.19 1012.84 1013.46 1013.85 1014.52 1014.41 1015.12 1015.61 1015.56 1015.70 1015.50 1015.19 1015.50 1015.73 1015.62 1015.86 1016.14 1016.54 1017.15 1017.73 1017.91 1018.47 1018.91 1019.16 1019.44
1009.76 1009.60 1009.82 1010.18 1009.92 1009.39 1009.11 1008.85 1008.64 1008.49 1008.27 1008.66 1008.93 1009.79 1010.17 1011.35 1012.43 1013.85 1015.18 1014.26 1014.36 1014.92 1014.93 1015.23 1015.48 1015.90 1015.93 1015.96 1015.79 1015.65 1016.03 1016.16 1016.22 1016.27 1016.83 1017.12 1017.49 1018.05 1018.53 1018.70 1019.03 1019.32 1019.53 1020.04
1009.93 1009.84 1010.04 1010.34 1010.22 1009.97 1009.64 1009.36 1009.12 1009.11 1008.79 1008.62 1008.86 1009.44 1010.13 1011.13 1012.13 1012.80 1014.48 1015.94 1015.54 1015.46 1015.63 1015.85 1016.01 1016.28 1016.37 1016.13 1016.08 1016.33 1016.63 1016.49 1016.52 1017.14 1017.66 1017.91 1018.35 1018.63 1019.26 1019.28 1019.52 1019.95 1020.12 1020.60
1010.22 1010.01 1010.43 1010.66 1010.54 1010.49 1010.04 1009.60 1009.48 1009.78 1009.73 1009.27 1009.25 1009.22 1009.50 1010.06 1010.60 1009.84 1013.23 1015.21 1015.45 1015.63 1016.05 1016.40 1016.58 1016.69 1016.70 1016.56 1016.59 1016.91 1017.04 1017.18 1017.44 1017.98 1018.56 1018.80 1019.15 1019.39 1020.12 1020.62 1020.66 1020.83 1021.13 1021.06
1010.18 1009.95 1010.07 1010.22 1009.89 1010.11 1009.95 1009.75 1009.58 1009.84 1009.88 1009.81 1009.62 1010.04 1010.27 1010.73 1011.01 1012.29 1013.69 1014.41 1014.92 1015.95 1016.37 1016.66 1016.72 1016.85 1017.16 1017.02 1016.94 1017.06 1017.40 1017.79 1018.23 1018.67 1019.14 1019.70 1020.06 1020.29 1020.67 1021.12 1021.55 1021.76 1021.78 1022.00
Thickness
5799 5779 5762 5777 5782 5784 5787 5781 5779 5799 5813 5807 5792 5783 5794 5795 5793 5786 5782 5784 5785 5779 5771 5779 5778 5781 5768 5766 5756 5752 5758 5761 5758 5750 5742 5736 5735 5740 5739 5737 5735 5729 5726 5724
5780 5764 5783 5793 5790 5784 5778 5771 5775 5796 5813 5806 5791 5774 5789 5787 5791 5793 5787 5781 5781 5777 5767 5768 5774 5770 5771 5752 5747 5751 5752 5756 5755 5750 5743 5736 5737 5738 5737 5732 5726 5724 5723 5721
5767 5786 5801 5790 5787 5779 5778 5769 5773 5778 5798 5800 5794 5761 5768 5784 5785 5784 5787 5784 5782 5780 5769 5756 5758 5755 5758 5748 5745 5750 5752 5752 5749 5746 5740 5732 5733 5732 5728 5724 5721 5721 5720 5719
5777 5795 5795 5786 5781 5782 5764 5797 5793 5786 5778 5758 5789 5738 5763 5771 5769 5773 5781 5776 5777 5778 5775 5763 5761 5750 5748 5747 5737 5742 5751 5750 5749 5746 5734 5732 5726 5719 5720 5719 5718 5717 5718 5717
5773 5787 5786 5782 5787 5792 5781 5803 5794 5794 5773 5769 5770 5742 5756 5764 5760 5764 5779 5774 5778 5779 5778 5768 5759 5746 5745 5751 5742 5739 5741 5742 5741 5739 5734 5730 5723 5717 5718 5715 5712 5714 5717 5717
5781 5802 5797 5795 5805 5802 5808 5796 5773 5762 5749 5733 5757 5749 5748 5749 5771 5775 5789 5791 5782 5781 5775 5767 5764 5761 5758 5758 5755 5746 5744 5741 5739 5731 5728 5727 5720 5715 5713 5710 5709 5712 5715 5716
5766 5780 5798 5805 5788 5799 5786 5757 5723 5726 5715 5720 5752 5746 5752 5772 5779 5784 5789 5794 5782 5772 5768 5764 5755 5758 5763 5764 5762 5751 5747 5739 5730 5727 5725 5723 5717 5716 5707 5710 5713 5712 5712 5713
5738 5742 5785 5804 5789 5778 5772 5760 5721 5711 5704 5722 5747 5738 5756 5780 5782 5784 5789 5780 5774 5764 5760 5758 5759 5759 5760 5756 5749 5745 5738 5735 5734 5730 5725 5720 5717 5712 5708 5711 5713 5710 5713 5714
5729 5743 5793 5801 5803 5795 5774 5758 5770 5723 5722 5717 5726 5753 5770 5775 5770 5770 5771 5765 5767 5728 5755 5778 5765 5758 5749 5748 5747 5740 5735 5737 5735 5731 5726 5720 5715 5712 5710 5712 5710 5709 5713 5715
5756 5736 5774 5793 5801 5800 5785 5784 5747 5726 5713 5711 5716 5735 5733 5749 5753 5756 5759 5763 5762 5744 5752 5754 5755 5759 5751 5750 5744 5740 5737 5735 5732 5726 5723 5720 5717 5713 5710 5710 5708 5708 5711 5714
5756 5744 5760 5783 5774 5775 5771 5762 5744 5737 5723 5706 5700 5716 5761 5760 5760 5758 5764 5775 5776 5776 5750 5754 5752 5757 5751 5743 5745 5745 5743 5731 5728 5725 5719 5718 5716 5713 5708 5706 5706 5706 5707 5709
5760 5731 5728 5749 5780 5792 5786 5772 5756 5725 5731 5714 5712 5724 5767 5767 5770 5770 5768 5779 5772 5764 5751 5752 5747 5759 5746 5743 5742 5738 5735 5734 5728 5726 5721 5716 5715 5712 5707 5704 5702 5703 5703 5703
5756 5728 5723 5732 5753 5777 5775 5775 5756 5743 5734 5718 5711 5727 5760 5763 5759 5765 5762 5762 5758 5749 5738 5731 5731 5739 5737 5738 5740 5737 5733 5733 5728 5726 5722 5715 5714 5709 5706 5702 5699 5699 5699 5700
5763 5728 5732 5731 5740 5762 5765 5772 5764 5749 5726 5726 5727 5753 5745 5754 5751 5756 5761 5762 5754 5743 5735 5730 5731 5730 5729 5737 5738 5736 5732 5734 5728 5724 5723 5716 5712 5708 5705 5701 5697 5695 5695 5694
5748 5730 5739 5754 5759 5763 5768 5775 5759 5757 5754 5746 5760 5752 5764 5767 5758 5762 5764 5759 5748 5745 5744 5741 5738 5740 5739 5738 5733 5733 5733 5733 5727 5724 5722 5716 5713 5708 5704 5700 5695 5691 5690 5690
5737 5730 5741 5745 5759 5760 5761 5773 5780 5777 5764 5762 5761 5755 5783 5768 5765 5759 5761 5760 5749 5750 5747 5738 5746 5749 5743 5739 5734 5733 5736 5732 5724 5722 5720 5716 5711 5707 5701 5697 5692 5688 5685 5684
5729 5718 5713 5721 5737 5745 5732 5766 5773 5775 5777 5765 5759 5775 5770 5763 5768 5763 5761 5756 5750 5751 5752 5748 5750 5745 5735 5734 5729 5731 5732 5729 5723 5724 5721 5714 5709 5704 5698 5694 5689 5684 5681 5679
5717 5710 5703 5705 5725 5703 5742 5765 5775 5772 5776 5777 5773 5764 5770 5773 5762 5760 5760 5757 5752 5750 5752 5742 5735 5729 5727 5725 5728 5730 5725 5724 5722 5720 5717 5711 5705 5699 5693 5687 5682 5678 5675 5671
5722 5704 5695 5694 5691 5717 5750 5757 5753 5752 5757 5770 5762 5761 5761 5764 5761 5748 5753 5752 5747 5741 5737 5732 5728 5723 5721 5720 5715 5716 5719 5717 5718 5713 5711 5708 5703 5695 5687 5679 5673 5671 5668 5662
5706 5707 5698 5684 5693 5689 5725 5741 5752 5754 5724 5747 5756 5760 5755 5761 5739 5741 5741 5743 5737 5732 5726 5723 5718 5713 5711 5709 5706 5710 5710 5707 5706 5701 5703 5702 5697 5690 5682 5674 5666 5662 5659 5655
5680 5681 5683 5678 5683 5699 5714 5732 5742 5719 5714 5735 5751 5749 5748 5744 5743 5739 5733 5728 5725 5722 5716 5711 5706 5703 5702 5697 5696 5695 5696 5696 5692 5690 5691 5689 5683 5677 5672 5665 5658 5653 5650 5646
5676 5670 5669 5669 5674 5678 5715 5729 5728 5713 5722 5725 5729 5730 5725 5721 5715 5711 5717 5715 5710 5707 5702 5697 5700 5693 5688 5687 5685 5686 5688 5683 5677 5678 5675 5673 5669 5663 5657 5655 5649 5645 5642 5638
5661 5666 5663 5665 5666 5686 5695 5704 5710 5713 5718 5717 5717 5715 5713 5705 5698 5690 5679 5690 5692 5688 5689 5687 5685 5680 5680 5679 5679 5680 5674 5670 5669 5669 5662 5659 5655 5650 5645 5642 5639 5635 5632 5626
5659 5666 5657 5662 5670 5674 5685 5695 5701 5704 5711 5716 5717 5712 5709 5701 5697 5693 5664 5657 5673 5677 5677 5675 5674 5671 5669 5671 5671 5667 5662 5663 5662 5654 5650 5647 5643 5639 5633 5630 5629 5624 5621 5615
5645 5655 5650 5652 5664 5666 5676 5687 5691 5692 5696 5704 5709 5713 5710 5708 5707 5712 5679 5666 5666 5664 5664 5662 5660 5660 5659 5659 5657 5654 5653 5650 5646 5640 5634 5632 5627 5626 5619 5613 5612 5609 5604 5604
5638 5641 5641 5641 5660 5662 5668 5676 5683 5683 5687 5691 5697 5696 5698 5697 5695 5685 5673 5666 5661 5654 5655 5654 5653 5651 5646 5646 5646 5644 5641 5638 5632 5628 5624 5619 5616 5614 5611 5605 5597 5592 5591 5588